Location: ??????
(41.3794°N, 22.5014°E)
Time: 08:28:02
(UTC+00:00)

NOAA 11 - Pass Details

Date: 30 November 2020
Orbit: 834 x 849 km, 98.4° (Epoch: 17 January)

Event Time Altitude Azimuth Distance (km) Brightness Sun altitude
Rises 16:12:57 0° 164° (SSE) 3,366 7.3 -13.1°
Reaches altitude 10° 16:15:17 10° 163° (SSE) 2,437 6.6 -13.6°
Maximum altitude 16:20:42 86° 75° (ENE) 843 4.1 -14.5°
Drops below altitude 10° 16:26:10 10° 348° (NNW) 2,460 6.6 -15.5°
Sets 16:28:32 0° 348° (NNW) 3,401 7.3 -15.9°
